Flag for Canada Weather past 2 weeks in Arctic Bay, Nunavut, Canada

Now
16 °F

Sunny.


Feels Like: 3 °F
Forecast: 13 / 27 °F
Wind: 10 mph from Southeast

Location: Pond Inlet

Current Time: May 23, 2015 at 7:04:05 AM

Latest Report: May 23, 2015 at 6:00 AM


Visibility: 9 mi

Pressure: 29.72 "Hg

Humidity: 79%

Dew point: 10 °F

Location of Arctic BayLocation

Historic Weather in Arctic Bay — Graph

°F

Arctic Bay temperature yesterday

Maximum temperature yesterday: 25 °F (at 12:00 PM)
Minimum temperature yesterday: 18 °F (at 10:00 PM)
Average temperature yesterday: 22 °F

Past Weeks' High & Low Weather Summary

 TemperatureHumidityPressure
High27 °F (May 19, 2:00 PM)93% (May 14, 12:00 AM)30.32 "Hg (May 14, 12:00 AM)
Low1 °F (May 10, 12:03 AM)53% (May 16, 5:00 PM)29.62 "Hg (May 22, 10:00 AM)
Average15 °F81%29.89 "Hg
* Reported May 8 6:00 AM — May 23 6:00 AM, Arctic Bay, Weather by CustomWeather, © 2015

Note: Actual official high and low records may vary slightly from our data, if they occured in-between our weather recording intervals... More about our weather records

Advertising

Arctic Bay weather history for previous 24 hours

 ConditionsComfort  
Time TempWeatherWind HumidityBarometerVisibility
6:00 AM
Sat, May 23
16 °FSunny.10 mph79%29.72 "Hg9 mi
5:00 AM14 °FSunny.10 mph79%29.73 "Hg9 mi
4:00 AM14 °FSunny.10 mph85%29.73 "Hg9 mi
3:00 AM14 °FBroken clouds.12 mph73%29.72 "Hg9 mi
2:00 AM14 °FPassing clouds.13 mph73%29.72 "Hg9 mi
1:00 AM14 °FPartly sunny.12 mph79%29.71 "Hg9 mi
12:00 AM16 °FPassing clouds.8 mph73%29.71 "Hg9 mi
11:00 PM
Fri, May 22
18 °FSunny.6 mph73%29.71 "Hg9 mi
10:00 PM18 °FSunny.3 mph79%29.71 "Hg9 mi
9:00 PM23 °FPartly sunny.3 mph68%29.71 "Hg9 mi
8:00 PM23 °FSunny.No wind68%29.70 "Hg9 mi
7:00 PM25 °FScattered clouds.2 mph69%29.69 "Hg30 mi
6:00 PM25 °FPassing clouds.2 mph69%29.68 "Hg30 mi
5:00 PM25 °FPassing clouds.12 mph69%29.67 "Hg30 mi
4:00 PM25 °FPassing clouds.7 mph74%29.66 "Hg30 mi
3:00 PM25 °FScattered clouds.6 mph74%29.65 "Hg30 mi
2:00 PM23 °FPassing clouds.5 mph86%29.63 "Hg30 mi
1:00 PM23 °FPartly sunny.6 mph93%29.62 "Hg15 mi
12:00 PM25 °FPartly sunny.3 mph86%29.62 "Hg15 mi
11:00 AM23 °FLow clouds.2 mph93%29.63 "Hg15 mi
10:00 AM23 °FPartly sunny.6 mph93%29.62 "Hg9 mi
9:00 AM21 °FLow clouds.3 mph93%29.63 "Hg9 mi
8:00 AM21 °FLight snow. Broken clouds.3 mph93%29.63 "Hg9 mi
7:00 AM21 °FLight snow. Overcast.No wind93%29.64 "Hg1 mi
Weather by CustomWeather, © 2015

See weather overviewHow to use our weather pages